Location: Pl�tzky
(52.0521°N, 11.8020°E)
Time: 23:26:59
(UTC+00:00)

Cosmos 2278 Rocket - Pass Details

Date: 22 November 2019
Orbit: 840 x 846 km, 71.0° (Epoch: 06 December)

Event Time Altitude Azimuth Distance (km) Brightness Sun altitude
Rises 17:57:30 0° 329° (NNW) 3,418 5.7 -24.7°
Reaches altitude 10° 18:00:25 10° 343° (NNW) 2,479 4.8 -25.2°
Enters shadow 18:03:29 22° 13° (NNE) 1,766 3.7 -25.6°
